Dewpoint
20 19 19 18 17 16 16 15 14 14 13 12 11 11 10 10 9 8 7 6 4 3 2 1 0 1 1 4 5 6 6 7 9 10 10 10 11 12 12 13 14 13 11 10 9 10 11 9 8 7 6 7 7 8 8 8 8 8 7 7 6 7 7 4 4 6 6 6 6 6 5 8 12 14 14 15 15 13 13 12 15 19 23 26 28
18 18 17 16 16 15 14 14 13 12 12 11 11 11 10 9 8 8 7 5 4 3 2 1 1 1 3 5 6 6 7 9 10 10 10 10 10 11 13 14 14 14 14 13 11 9 11 11 9 7 6 7 7 7 7 7 7 6 6 6 8 5 8 5 2 2 4 5 4 5 5 4 5 5 11 13 13 13 13 13 15 19 24 27 25
10 11 10 10 11 11 12 11 11 10 10 10 10 10 10 9 9 8 7 6 5 3 2 1 2 3 5 6 6 7 8 9 10 10 10 10 10 10 11 11 12 13 13 13 13 14 13 11 10 8 7 6 6 6 7 6 7 6 5 6 6 7 8 8 3 -1 2 4 6 4 3 3 4 5 8 10 12 13 14 15 16 20 22 19 19
7 6 6 5 4 4 4 5 5 6 6 7 7 8 8 8 9 9 8 7 5 3 2 2 4 5 5 6 6 7 8 9 9 9 9 9 9 9 9 10 10 12 12 12 13 13 12 12 13 12 10 8 7 7 7 7 7 6 5 5 6 5 6 5 5 3 1 4 4 4 5 4 5 6 7 10 12 13 14 16 19 19 19 20 19
12 12 13 13 13 14 14 14 13 13 12 12 11 10 9 9 9 8 7 5 4 2 3 4 5 5 6 6 6 6 7 9 9 8 8 7 7 7 7 7 9 9 10 11 11 12 12 12 12 12 12 11 10 8 7 6 6 6 5 5 5 5 3 5 3 3 1 3 4 6 5 5 5 6 8 8 10 12 15 17 17 19 19 19 21
13 13 13 13 13 13 13 13 12 11 10 9 8 7 7 7 6 6 6 4 3 3 4 5 6 6 6 6 6 6 8 9 8 7 6 5 5 5 7 8 7 8 8 8 9 10 11 11 11 11 11 10 9 8 6 5 4 4 2 3 4 3 2 2 3 3 2 3 3 5 4 4 5 6 6 8 10 10 10 13 15 16 17 17 19
12 12 12 12 12 12 11 11 10 9 9 8 7 6 5 5 5 5 5 4 4 4 5 6 7 6 7 7 7 8 8 7 6 5 5 4 4 4 5 6 6 7 7 7 8 8 9 9 10 10 10 11 10 8 6 4 4 3 3 2 2 0 1 -0 -0 0 1 2 3 4 4 5 5 4 5 5 6 8 10 11 10 11 14 15 16
11 11 11 11 11 11 11 11 11 11 11 11 10 8 7 6 6 6 6 6 6 6 7 8 8 8 8 8 9 9 8 6 5 5 5 4 3 2 4 5 5 5 6 6 6 7 7 7 8 9 10 10 9 9 6 6 4 3 3 1 0 -1 0 0 -1 1 2 1 4 4 4 5 5 5 4 6 9 9 9 8 6 8 12 15 15
10 10 10 10 11 11 12 12 12 13 13 13 12 11 11 10 10 9 9 9 11 11 10 11 10 11 11 10 10 9 8 6 5 5 4 2 3 4 4 5 6 5 6 6 6 6 6 6 7 8 9 10 10 12 10 10 6 5 4 2 2 3 1 -1 0 2 0 1 4 5 4 4 4 3 3 4 5 3 5 5 6 10 11 10 11
9 9 9 9 10 11 12 12 13 13 13 13 13 13 13 13 13 13 12 12 12 13 12 12 12 11 11 10 9 8 7 6 8 10 10 5 3 4 5 6 6 6 6 6 6 7 6 6 7 9 9 9 9 10 11 12 12 9 7 4 4 4 2 1 1 1 2 3 4 4 4 3 2 2 2 2 2 2 3 4 8 9 8 7 9
7 7 8 8 9 10 12 12 12 12 12 12 12 13 14 15 14 13 14 13 13 13 13 12 11 11 10 9 7 6 5 5 10 13 13 13 10 8 8 8 7 7 7 7 7 7 7 7 6 7 8 8 9 9 10 10 10 11 11 11 9 6 4 5 5 6 5 5 4 4 3 3 3 3 2 2 3 3 4 6 8 7 5 4 3
5 5 6 7 10 11 11 10 9 9 10 10 11 12 13 14 13 12 12 12 12 12 11 11 10 10 8 8 7 6 4 8 14 14 13 13 10 8 8 8 7 7 7 8 9 9 9 9 8 7 6 6 6 7 9 9 9 9 9 10 10 10 11 10 9 8 8 7 6 6 5 5 5 5 6 6 6 6 6 7 7 6 5 4 4
4 5 6 9 9 7 7 7 7 8 9 10 10 11 12 12 13 12 12 12 11 10 10 10 9 8 7 7 6 5 1 9 14 13 13 12 10 7 6 6 7 7 8 7 6 6 5 4 4 7 9 10 10 8 6 6 8 9 10 10 11 10 10 11 13 11 11 10 9 8 8 8 7 8 10 10 11 7 7 7 7 7 6 5 4
6 7 7 5 5 6 7 7 7 8 8 8 8 8 8 9 10 11 12 12 11 10 9 8 8 6 6 6 4 0 -0 7 12 12 12 10 9 7 4 6 7 7 7 7 6 6 6 6 6 5 6 7 8 7 7 6 5 3 3 3 5 9 10 10 10 10 10 8 8 7 8 8 6 7 8 9 6 5 4 4 5 5 5 4 5
3 1 3 5 5 5 6 6 6 7 6 6 6 6 6 7 8 9 9 9 9 9 9 8 7 6 6 5 3 2 3 8 11 11 11 10 8 6 5 5 4 6 7 6 5 6 8 8 7 6 7 8 8 8 6 5 5 5 5 4 3 1 2 2 2 1 2 2 2 2 3 3 4 4 4 4 3 3 3 3 3 2 3 5 5
-1 3 4 3 3 4 5 6 6 4 4 3 3 3 4 5 6 7 8 8 8 7 6 7 6 6 6 5 4 3 1 10 10 10 10 9 8 4 5 4 3 5 5 3 2 2 2 5 5 5 5 5 6 7 7 7 5 2 1 1 -1 -1 -0 5 10 12 7 4 2 2 2 2 10 4 3 2 3 4 4 4 2 -1 1 1 -0
2 1 -1 -1 1 3 5 4 3 2 2 1 1 1 2 3 5 7 6 6 7 7 7 7 7 5 4 3 1 -0 -2 6 9 10 10 10 7 3 2 3 4 2 1 -1 0 -1 -1 -1 1 1 1 1 4 5 8 6 5 4 2 1 1 1 2 1 9 11 12 13 14 15 15 16 16 16 16 17 14 11 8 6 5 4 3 2 2
-2 -4 -5 -4 -0 3 2 1 -1 -1 -1 -2 -1 -1 0 1 2 3 3 3 3 4 5 5 5 3 3 2 1 0 -1 2 5 7 8 9 6 3 4 5 4 3 1 -1 -2 -2 -0 4 4 1 -0 -0 4 6 10 5 3 3 3 3 3 4 5 6 5 7 11 12 12 12 12 13 13 14 14 15 14 10 7 5 5 7 5 5 3
-4 -5 -5 -2 1 1 -1 -2 -3 -3 -4 -4 -3 -3 -2 -1 1 2 3 4 4 4 4 3 1 1 1 0 3 1 -2 0 4 6 7 8 5 3 4 3 2 1 1 -1 -3 -1 0 3 3 3 2 3 3 8 8 6 5 5 4 3 2 0 1 2 1 -1 -3 -3 -0 1 1 4 2 1 2 5 7 8 5 4 5 3 2 2 2
-5 -5 -4 -1 -1 -2 -3 -3 -4 -5 -5 -5 -4 -4 -2 -1 -0 0 1 2 3 2 0 -1 -2 -1 -0 0 0 -0 -3 -6 -2 5 7 7 8 3 3 2 2 2 0 -2 -2 -2 -1 -1 1 3 4 4 6 8 9 10 5 5 5 4 3 2 3 2 2 1 -1 -1 -1 -2 -2 -1 -2 -4 -3 -1 1 2 2 2 -1 1 0 -3 -2
-5 -5 -4 -2 -2 -4 -5 -7 -7 -6 -6 -6 -5 -4 -3 -3 -2 -1 -0 1 1 -1 -1 -2 -2 -1 -1 -1 -2 -5 -5 -6 -6 2 5 6 8 3 1 2 2 1 -3 -3 -4 -4 -2 -2 -1 2 3 3 4 8 9 9 8 6 7 6 6 6 7 4 5 6 4 1 0 -1 -1 -2 -2 -2 -2 -0 1 2 2 3 3 2 2 1 -1
-6 -6 -6 -4 -4 -6 -7 -7 -7 -7 -7 -6 -7 -6 -5 -4 -3 -2 -0 -0 -1 -3 -6 -5 -5 -7 -8 -7 -7 -8 -5 -2 -6 -2 1 4 5 6 1 1 2 1 0 -0 -0 -1 -0 -0 -2 0 2 4 3 7 9 9 9 6 6 8 10 8 7 8 7 6 6 5 2 1 -0 -1 -2 -1 -1 1 2 3 3 3 3 2 3 3 3
-7 -7 -6 -5 -6 -8 -8 -9 -8 -8 -8 -7 -8 -8 -6 -5 -3 -1 -2 -3 -5 -8 -10 -9 -10 -11 -12 -10 -10 -9 -8 -6 -3 -4 -1 1 4 4 1 1 2 0 -1 -3 -2 -1 -1 -0 1 2 4 4 5 8 8 6 5 5 9 9 7 7 7 6 7 5 6 6 5 4 4 4 3 1 1 1 2 3 3 3 3 3 4 5 4
-8 -8 -7 -7 -8 -9 -9 -9 -10 -9 -9 -8 -8 -8 -6 -4 -2 -2 -5 -8 -9 -9 -11 -11 -11 -11 -12 -12 -11 -10 -9 -9 -5 -4 -4 -3 -2 3 4 0 -1 -3 -3 -6 -6 -5 -5 -4 -0 2 1 4 7 7 7 5 5 7 7 7 6 7 6 4 4 4 5 5 5 5 4 4 3 -1 0 3 3 3 4 4 4 3 3 4 5
-9 -10 -9 -9 -10 -11 -11 -11 -11 -10 -10 -9 -8 -5 -5 -5 -5 -8 -10 -11 -11 -10 -9 -10 -11 -12 -13 -13 -14 -13 -12 -12 -12 -8 -7 -7 -6 -4 -4 -3 -4 -4 -5 -4 -4 -6 -2 -1 0 1 2 4 4 4 4 3 2 1 1 2 2 2 3 1 0 -1 -0 1 1 -1 -3 -2 -0 0 2 -1 4 5 6 6 7 8 8 8 9
-11 -10 -10 -10 -11 -12 -13 -12 -12 -11 -11 -9 -8 -7 -7 -7 -6 -7 -11 -12 -12 -11 -12 -11 -11 -11 -12 -15 -16 -16 -14 -14 -12 -12 -8 -8 -8 -7 -7 -8 -7 -5 -4 -4 -4 -3 -2 -2 -3 -4 -3 -2 -2 -2 -0 1 1 1 1 2 0 -2 -3 -3 -4 -3 -2 -3 -3 -4 -4 -7 -5 -3 -3 2 1 -1 -1 -0 0 1 -2 -2 -2
-11 -11 -11 -11 -12 -13 -14 -12 -11 -10 -11 -10 -9 -9 -9 -9 -8 -7 -10 -13 -14 -13 -12 -10 -11 -13 -14 -17 -18 -16 -16 -15 -13 -13 -13 -13 -13 -10 -10 -9 -7 -6 -6 -8 -5 -8 -6 -4 -4 -5 -4 -3 -3 -3 -2 -1 -0 -1 -4 -2 -1 -2 -1 -2 -2 -2 -3 -6 -6 -7 -5 -3 -6 -2 -5 -6 -6 -7 -6 -2 -4 -5 -4 -4 -4
-12 -12 -12 -14 -14 -14 -13 -10 -10 -12 -11 -11 -11 -11 -10 -10 -10 -10 -11 -12 -14 -15 -15 -13 -14 -15 -17 -18 -18 -19 -17 -16 -14 -13 -12 -12 -11 -10 -10 -9 -11 -13 -11 -11 -11 -9 -8 -4 -5 -8 -9 -8 -8 -11 -11 -10 -6 -4 -6 -5 -3 -1 1 2 2 -2 -5 -5 -6 -6 -4 -4 -5 -6 -5 -4 -7 -6 -4 -2 -2 -4 -3 -3 -3
-12 -16 -16 -16 -16 -12 -12 -13 -13 -13 -13 -12 -12 -12 -12 -11 -10 -9 -12 -11 -13 -13 -16 -17 -14 -16 -16 -15 -15 -18 -17 -15 -14 -7 -7 -8 -9 -10 -11 -11 -11 -12 -6 -4 -6 -8 -10 -10 -10 -10 -12 -10 -11 -13 -14 -14 -11 -8 -9 -8 -5 -5 -5 -8 -7 -5 -5 -6 -4 -3 -2 -6 -8 -6 -5 -8 -8 -8 -9 -8 -6 -6 -6 -4 -4
-16 -17 -18 -18 -16 -14 -13 -14 -14 -13 -13 -13 -12 -12 -8 -7 -6 -8 -9 -4 -2 -3 -3 -10 -12 -13 -14 -14 -15 -17 -17 -14 -9 -9 -8 -8 -9 -9 -9 -8 -8 -9 -8 -8 -9 -9 -12 -15 -15 -15 -14 -16 -15 -14 -13 -14 -12 -10 -9 -4 -3 -6 -5 -8 -8 -5 -6 -6 -5 -6 -6 -8 -11 -11 -10 -8 -11 -11 -9 -2 -8 -7 -6 -7 -7
-17 -18 -16 -17 -15 -14 -14 -15 -14 -14 -13 -13 -13 -13 -12 -11 -7 -6 -6 -6 -6 -6 -8 -5 -6 -8 -8 -15 -15 -13 -13 -13 -11 -10 -9 -9 -8 -9 -9 -10 -10 -10 -10 -10 -11 -14 -14 -16 -17 -18 -17 -18 -16 -15 -14 -13 -12 -11 -10 -9 -8 -6 -4 -6 -5 -6 -6 -6 -7 -8 -8 -10 -13 -12 -11 -10 -9 -10 -12 -8 -8 -8 -8 -7 -7
-20 -19 -18 -18 -16 -14 -15 -15 -14 -14 -14 -13 -13 -13 -14 -14 -13 -9 -6 -6 -6 -5 -6 -7 -7 -8 -10 -11 -13 -19 -14 -14 -13 -11 -10 -10 -12 -13 -12 -11 -10 -10 -11 -11 -13 -18 -20 -21 -21 -20 -20 -18 -17 -15 -15 -15 -13 -13 -12 -11 -10 -9 -8 -7 -5 -7 -7 -8 -8 -10 -11 -14 -17 -12 -10 -9 -6 -9 -11 -10 -12 -10 -9 -9 -8
-21 -20 -19 -17 -15 -14 -14 -16 -15 -15 -14 -13 -13 -13 -14 -15 -15 -15 -13 -5 -7 -9 -9 -9 -9 -10 -10 -12 -12 -13 -15 -15 -14 -12 -13 -14 -14 -14 -13 -12 -12 -13 -13 -15 -20 -19 -22 -22 -21 -21 -20 -18 -18 -18 -16 -16 -13 -11 -10 -9 -9 -8 -7 -6 -5 -7 -7 -7 -8 -11 -13 -13 -11 -10 -7 -7 -8 -11 -11 -11 -13 -13 -12 -10 -7
-23 -21 -18 -16 -17 -17 -17 -17 -16 -14 -13 -13 -13 -15 -15 -16 -19 -18 -18 -16 -16 -13 -12 -11 -11 -13 -15 -15 -15 -15 -15 -15 -15 -16 -16 -15 -13 -14 -16 -16 -14 -14 -14 -17 -20 -21 -22 -22 -20 -20 -20 -18 -17 -15 -13 -13 -11 -9 -7 -5 -5 -5 -5 -8 -9 -6 -8 -7 -12 -12 -12 -17 -12 -15 -16 -17 -15 -13 -14 -12 -14 -15 -15 -14 -12
-22 -17 -16 -17 -18 -19 -18 -17 -16 -15 -15 -15 -17 -17 -17 -16 -16 -17 -19 -19 -20 -20 -19 -20 -16 -15 -17 -16 -18 -19 -18 -18 -17 -17 -17 -15 -16 -17 -17 -21 -22 -21 -20 -22 -21 -23 -22 -21 -21 -20 -19 -17 -15 -13 -13 -12 -11 -11 -10 -8 -7 -7 -7 -11 -7 -8 -8 -12 -15 -15 -16 -16 -19 -15 -14 -14 -15 -15 -15 -15 -16 -16 -15 -15 -14
-23 -23 -24 -21 -21 -20 -19 -19 -18 -18 -17 -16 -15 -16 -16 -17 -18 -19 -19 -19 -21 -23 -24 -28 -28 -17 -18 -19 -20 -20 -19 -18 -18 -18 -17 -17 -18 -19 -25 -27 -26 -24 -22 -21 -21 -19 -17 -17 -16 -16 -14 -13 -12 -12 -13 -13 -13 -11 -10 -9 -8 -9 -11 -11 -10 -10 -12 -14 -17 -17 -16 -21 -19 -18 -23 -20 -19 -15 -17 -16 -16 -16 -14 -13 -14
-26 -25 -24 -23 -22 -21 -21 -21 -21 -19 -17 -16 -17 -19 -20 -21 -20 -22 -23 -26 -24 -24 -26 -33 -31 -29 -23 -23 -20 -19 -19 -20 -19 -19 -18 -19 -20 -21 -28 -27 -27 -25 -22 -21 -19 -17 -18 -19 -17 -17 -17 -17 -17 -17 -16 -16 -14 -13 -9 -9 -8 -9 -13 -12 -11 -11 -13 -17 -21 -20 -23 -25 -29 -23 -20 -18 -17 -19 -18 -17 -16 -14 -13 -11 -11
-27 -25 -24 -23 -23 -23 -23 -23 -21 -19 -19 -20 -21 -23 -23 -24 -24 -23 -23 -24 -24 -24 -29 -34 -21 -31 -31 -29 -20 -21 -23 -21 -20 -20 -19 -20 -24 -30 -30 -27 -24 -24 -23 -22 -20 -20 -20 -20 -21 -20 -19 -20 -18 -17 -18 -18 -16 -15 -14 -13 -12 -11 -4 -9 -9 -16 -16 -19 -22 -25 -22 -23 -26 -24 -17 -19 -18 -19 -18 -17 -17 -18 -16 -15 -15
-28 -22 -22 -22 -22 -24 -24 -22 -21 -21 -22 -21 -23 -23 -23 -24 -24 -26 -27 -27 -28 -29 -27 -32 -32 -31 -31 -31 -32 -26 -26 -32 -32 -30 -30 -31 -31 -31 -31 -29 -27 -25 -23 -23 -21 -21 -23 -21 -20 -20 -19 -20 -18 -19 -19 -18 -17 -16 -15 -15 -14 -14 -14 -19 -18 -20 -19 -21 -22 -27 -25 -26 -29 -28 -22 -21 -19 -19 -18 -17 -17 -17 -18 -18 -19
-27 -28 -25 -23 -24 -23 -23 -22 -21 -23 -22 -23 -24 -24 -25 -26 -27 -28 -27 -28 -30 -29 -30 -30 -31 -32 -31 -31 -29 -28 -29 -28 -28 -30 -31 -31 -30 -30 -31 -30 -28 -27 -25 -25 -25 -25 -24 -24 -22 -22 -21 -21 -21 -20 -21 -21 -20 -18 -18 -17 -17 -16 -15 -18 -21 -23 -21 -26 -27 -30 -28 -27 -30 -27 -26 -25 -22 -20 -18 -17 -17 -18 -19 -19 -20
-31 -29 -25 -25 -25 -25 -24 -23 -23 -24 -25 -25 -25 -27 -28 -26 -26 -25 -28 -28 -28 -29 -30 -31 -34 -34 -31 -23 -22 -23 -30 -30 -30 -30 -31 -29 -29 -31 -31 -30 -28 -28 -27 -26 -25 -25 -25 -24 -23 -22 -22 -22 -21 -22 -22 -22 -21 -20 -19 -17 -17 -18 -17 -18 -22 -25 -26 -25 -28 -28 -30 -32 -28 -23 -20 -21 -14 -15 -19 -18 -19 -20 -19 -19 -19
-30 -29 -29 -28 -26 -26 -25 -24 -24 -24 -27 -26 -28 -29 -27 -28 -28 -29 -28 -28 -28 -28 -31 -32 -34 -35 -25 -23 -24 -24 -30 -31 -30 -29 -30 -31 -31 -32 -29 -29 -30 -30 -28 -28 -27 -26 -25 -23 -23 -23 -23 -23 -23 -23 -22 -23 -22 -22 -22 -21 -20 -20 -20 -18 -20 -22 -24 -24 -28 -28 -30 -29 -26 -23 -21 -10 -20 -21 -21 -20 -21 -21 -21 -21 -19
-29 -29 -30 -28 -28 -27 -26 -26 -27 -30 -30 -29 -30 -25 -25 -28 -29 -29 -30 -28 -29 -29 -30 -32 -33 -31 -29 -23 -24 -24 -32 -35 -26 -30 -31 -30 -32 -30 -31 -31 -30 -30 -29 -28 -27 -26 -24 -24 -24 -23 -24 -23 -24 -23 -22 -22 -22 -23 -24 -23 -23 -22 -22 -21 -21 -23 -25 -25 -27 -24 -25 -25 -22 -23 -24 -22 -22 -21 -20 -20 -20 -21 -21 -21 -20
-30 -30 -29 -28 -28 -28 -27 -30 -30 -29 -31 -27 -26 -28 -29 -30 -31 -32 -33 -33 -32 -31 -31 -33 -32 -32 -32 -31 -29 -31 -35 -34 -35 -36 -32 -30 -32 -31 -33 -32 -30 -29 -29 -28 -26 -24 -24 -24 -24 -24 -24 -24 -24 -25 -24 -23 -24 -24 -25 -26 -24 -22 -22 -22 -22 -21 -22 -22 -26 -24 -25 -25 -23 -24 -21 -20 -23 -21 -21 -22 -22 -22 -23 -24 -23
-33 -32 -31 -32 -30 -31 -32 -32 -30 -31 -28 -29 -33 -34 -31 -33 -32 -32 -31 -33 -31 -31 -32 -31 -31 -31 -30 -35 -36 -34 -36 -38 -31 -30 -33 -34 -34 -34 -34 -32 -31 -31 -30 -28 -26 -25 -24 -24 -24 -24 -24 -24 -25 -25 -24 -23 -24 -25 -27 -27 -26 -24 -24 -23 -22 -22 -23 -23 -24 -24 -25 -25 -25 -27 -26 -25 -23 -23 -22 -24 -24 -20 -22 -22 -22
-32 -33 -32 -31 -31 -30 -30 -34 -30 -33 -34 -33 -34 -35 -34 -34 -33 -32 -31 -31 -31 -32 -33 -33 -34 -32 -31 -35 -35 -31 -35 -37 -36 -35 -31 -34 -35 -35 -34 -33 -32 -32 -31 -29 -26 -25 -24 -24 -23 -23 -24 -24 -24 -24 -23 -23 -24 -25 -26 -27 -27 -25 -23 -24 -25 -26 -25 -24 -25 -25 -25 -25 -26 -26 -24 -26 -26 -26 -27 -26 -26 -25 -26 -25 -25
-35 -34 -32 -32 -32 -31 -32 -32 -34 -33 -35 -34 -34 -35 -35 -35 -35 -32 -31 -32 -33 -32 -34 -36 -36 -36 -36 -37 -36 -36 -34 -32 -35 -34 -36 -36 -36 -37 -36 -35 -32 -32 -31 -29 -27 -26 -26 -25 -24 -23 -24 -24 -24 -23 -23 -25 -26 -26 -26 -27 -26 -25 -25 -25 -26 -27 -26 -26 -26 -25 -25 -23 -24 -24 -23 -24 -25 -25 -25 -27 -27 -28 -27 -26 -26
-35 -34 -34 -32 -34 -35 -35 -36 -35 -31 -35 -35 -35 -34 -34 -34 -35 -34 -35 -35 -35 -34 -36 -37 -38 -39 -35 -36 -34 -34 -32 -34 -33 -32 -35 -37 -39 -38 -37 -37 -33 -32 -31 -30 -29 -27 -26 -25 -24 -23 -23 -23 -24 -24 -24 -26 -26 -26 -27 -27 -27 -26 -25 -23 -26 -27 -28 -28 -27 -25 -25 -25 -26 -27 -26 -27 -28 -27 -27 -27 -27 -27 -27 -26 -26
-34 -35 -35 -35 -35 -35 -36 -36 -34 -37 -37 -37 -36 -36 -36 -36 -36 -37 -35 -36 -35 -35 -38 -38 -38 -38 -38 -37 -34 -34 -34 -31 -37 -38 -39 -39 -39 -39 -38 -36 -33 -32 -31 -31 -30 -28 -27 -25 -23 -22 -23 -23 -24 -25 -25 -27 -27 -28 -28 -27 -25 -23 -22 -22 -23 -26 -24 -28 -28 -28 -28 -28 -28 -27 -26 -27 -27 -28 -28 -29 -29 -27 -27 -27 -27
-35 -33 -34 -34 -35 -36 -36 -37 -39 -40 -38 -38 -38 -38 -36 -36 -37 -37 -36 -36 -37 -37 -38 -37 -37 -39 -39 -38 -36 -36 -35 -36 -37 -38 -39 -39 -40 -39 -38 -37 -35 -34 -33 -32 -30 -28 -26 -25 -24 -22 -22 -23 -25 -26 -28 -27 -27 -26 -26 -24 -22 -21 -21 -21 -20 -20 -26 -32 -31 -31 -29 -30 -30 -30 -30 -30 -30 -29 -28 -28 -28 -26 -28 -29 -28
-34 -35 -35 -36 -37 -36 -38 -40 -40 -40 -40 -39 -39 -40 -38 -39 -38 -38 -38 -38 -39 -38 -37 -40 -42 -40 -39 -41 -36 -37 -36 -37 -37 -38 -38 -39 -39 -38 -37 -36 -35 -35 -33 -32 -30 -29 -27 -25 -23 -22 -22 -23 -25 -26 -27 -26 -26 -24 -21 -20 -20 -21 -20 -20 -24 -20 -23 -26 -34 -31 -29 -29 -29 -29 -30 -31 -31 -29 -26 -27 -28 -29 -29 -29 -28